Home   Weather   53°59'N, 1°32'W   Past weeks
Flag for United Kingdom

Past Weather in 53°59'N, 1°32'W, United Kingdom — Yesterday and Last 2 Weeks

Now
63 °F

Drizzle. Broken clouds.


Feels Like: 63 °F
Forecast: 75 / 62 °F
Wind: 14 mph from Southwest

Location: Leeds And Bradford

Current Time: Aug 22, 2019 at 2:36:08 pm

Latest Report: Aug 22, 2019 at 1:50 pm


Visibility: N/A

Pressure: 30.09 "Hg

Humidity: 88%

Dew Point: 59 °F

Location of 53°59'N, 1°32'WLocation

Past Weather in 53°59'N, 1°32'W — Graph

°F

53°59'N, 1°32'W Temperature Yesterday

Maximum temperature yesterday: 66 °F (at 1:50 pm)
Minimum temperature yesterday: 54 °F (at 12:20 am)
Average temperature yesterday: 60 °F

High & Low Weather Summary for the Past Weeks

 TemperatureHumidityPressure
High72 °F (Aug 9, 12:50 pm)100% (Aug 9, 3:20 am)30.24 "Hg (Aug 9, 3:20 am)
Low48 °F (Aug 12, 4:20 am)48% (Aug 12, 2:20 pm)29.24 "Hg (Aug 10, 5:20 am)
Average58 °F80%29.77 "Hg
* Reported Aug 7 1:20 pm — Aug 22 1:20 pm, 53°59'N, 1°32'W. Weather by CustomWeather, © 2019

Note: Actual official high and low records may vary slightly from our data, if they occured in-between our weather recording intervals... More about our weather records

Advertising

53°59'N, 1°32'W Weather History for the Previous 24 Hours

Scroll right to see more
 ConditionsComfort  
Time TempWeatherWind HumidityBarometerVisibility
1:20 pm
Thu, Aug 22
63 °FDrizzle. Partly sunny.12 mph88%30.09 "Hg6 mi
12:50 pm63 °FScattered clouds.9 mph88%30.12 "HgN/A
12:20 pm61 °FScattered clouds.10 mph94%30.12 "Hg4 mi
11:50 am61 °FScattered clouds.9 mph88%30.12 "HgN/A
11:20 am61 °FScattered clouds.7 mph88%30.09 "HgN/A
10:50 am61 °FScattered clouds.8 mph88%30.09 "HgN/A
10:20 am61 °FScattered showers. Scattered clouds.10 mph88%30.09 "Hg6 mi
9:50 am61 °FScattered showers. Scattered clouds.9 mph83%30.09 "HgN/A
9:20 am59 °FScattered clouds.8 mph94%30.09 "HgN/A
8:50 am59 °FDrizzle. Broken clouds.9 mph94%30.09 "HgN/A
8:20 am57 °FDrizzle. Broken clouds.10 mph94%30.09 "HgN/A
7:50 am57 °FDrizzle. Broken clouds.10 mph94%30.09 "Hg5 mi
6:50 am57 °FDrizzle. Partly sunny.10 mph88%30.09 "Hg5 mi
6:20 am55 °FDrizzle. Partly sunny.10 mph94%30.09 "Hg5 mi
5:50 am55 °FPassing clouds.12 mph94%30.09 "Hg5 mi
5:20 am57 °FPassing clouds.15 mph88%30.09 "HgN/A
4:50 am57 °FPassing clouds.13 mph88%30.07 "HgN/A
4:20 am57 °FPassing clouds.16 mph82%30.07 "HgN/A
3:50 am57 °FPassing clouds.15 mph82%30.09 "HgN/A
3:20 am57 °FPassing clouds.16 mph82%30.09 "HgN/A
2:50 am57 °FPassing clouds.17 mph77%30.09 "HgN/A
2:20 am59 °FPassing clouds.15 mph72%30.09 "HgN/A
1:50 am59 °FPassing clouds.17 mph72%30.09 "HgN/A
1:20 am59 °FPassing clouds.16 mph72%30.09 "HgN/A
12:50 am59 °FPassing clouds.13 mph72%30.12 "HgN/A
12:20 am59 °FPassing clouds.12 mph72%30.12 "HgN/A
11:50 pm
Wed, Aug 21
59 °FPassing clouds.13 mph72%30.12 "HgN/A
11:20 pm59 °FPassing clouds.12 mph72%30.12 "HgN/A
10:50 pm59 °FPassing clouds.12 mph77%30.15 "HgN/A
10:20 pm59 °FPassing clouds.12 mph77%30.15 "HgN/A
9:50 pm59 °FSprinkles. Passing clouds.10 mph82%30.15 "HgN/A
9:20 pm59 °FSprinkles. Passing clouds.9 mph82%30.15 "HgN/A
8:50 pm59 °FPassing clouds.9 mph77%30.15 "HgN/A
8:20 pm59 °FScattered clouds.13 mph77%30.15 "HgN/A
7:50 pm59 °FScattered clouds.18 mph77%30.15 "HgN/A
7:20 pm61 °FScattered showers. Passing clouds.16 mph77%30.15 "HgN/A
6:50 pm61 °FPassing clouds.9 mph72%30.15 "HgN/A
6:20 pm61 °FScattered clouds.13 mph72%30.15 "HgN/A
5:50 pm63 °FSprinkles. Scattered clouds.10 mph73%30.18 "HgN/A
5:20 pm63 °FSprinkles. Scattered clouds.16 mph68%30.18 "HgN/A
4:50 pm64 °FScattered clouds.10 mph64%30.18 "HgN/A
4:20 pm64 °FScattered clouds.14 mph68%30.18 "HgN/A
3:50 pm64 °FScattered showers. Scattered clouds.10 mph64%30.18 "HgN/A
3:20 pm64 °FScattered clouds.12 mph60%30.18 "HgN/A
2:50 pm64 °FScattered clouds.13 mph60%30.21 "HgN/A
2:20 pm64 °FScattered clouds.13 mph64%30.21 "HgN/A
Weather by CustomWeather, © 2019

See weather overview